Carmi, IL

6:05 AM CDT on September 16, 2019 (GMT -0500)
Carmi Municipal

Weather History for KCUL - August, 2019

Change the Weather History Date:

Saturday, August 24, 2019

  Actual Average (WUND) Record (WUND)
Temperature  
Mean Temperature 68 °F -  
Max Temperature 77 °F - - (-1)
Min Temperature 59 °F - - (-1)
Cooling Degree Days 3    
Growing Degree Days 18 (Base 50)    
Moisture  
Dew Point 61 °F    
Average Humidity 81    
Maximum Humidity 100    
Minimum Humidity 57    
Precipitation  
Precipitation 0.00 in - - ()
Sea Level Pressure  
Sea Level Pressure 30.12 in    
Wind  
Wind Speed 5 mph ()    
Max Wind Speed 14 mph    
Max Gust Speed 18 mph    
Visibility 9.9 miles    
Events      
Averages and records for this station are not official NWS values.
T = Trace of Precipitation, MM = Missing Value Source: Averaged Metar Reports

Daily Weather History Graph

Daily Weather History Graph

Search for Another Location

Airport or City:

Astronomy

Aug. 24, 2019 Rise Set
Actual Time 6:15 AM CDT 7:33 PM CDT
Civil Twilight 5:47 AM CDT 8:01 PM CDT
Nautical Twilight 5:14 AM CDT 8:34 PM CDT
Astronomical Twilight 4:40 AM CDT 9:08 PM CDT
Moon 12:09 AM CDT (8/24) 2:46 PM CDT (8/24)
Length of Visible Light 14h 13m
Length of Day
13h 18m
Last Quarter, 39% of the Moon is Illuminated
Aug 24
Last Quarter
Aug 30
New
Sep 5
First Quarter
Sep 13
Full
Sep 21
Last Quarter

Hourly Weather History & Observations

Time (CDT) Temp. Dew Point Humidity Pressure Visibility Wind Dir Wind Speed Gust Speed Precip Events Conditions
12:15 AM 62.6 °F 62.6 °F 100% 30.13 in 7.0 mi NE 3.5 mph - N/A   Clear
12:55 AM 62.6 °F 62.6 °F 100% 30.13 in 7.0 mi NE 3.5 mph - N/A   Clear
1:15 AM 62.6 °F 62.6 °F 100% 30.13 in 10.0 mi NE 5.8 mph - N/A   Clear
1:35 AM 62.6 °F 62.6 °F 100% 30.13 in 10.0 mi NE 4.6 mph - N/A   Clear
1:55 AM 62.6 °F 62.6 °F 100% 30.12 in 10.0 mi NE 4.6 mph - N/A   Clear
2:15 AM 62.6 °F 62.6 °F 100% 30.13 in 10.0 mi NE 4.6 mph - N/A   Clear
2:35 AM 62.6 °F 62.6 °F 100% 30.13 in 10.0 mi NNE 5.8 mph - N/A   Clear
2:55 AM 62.6 °F 62.6 °F 100% 30.13 in 10.0 mi NNE 6.9 mph - N/A   Clear
3:15 AM 62.6 °F 60.8 °F 94% 30.13 in 10.0 mi NNE 5.8 mph - N/A   Clear
3:35 AM 60.8 °F 60.8 °F 100% 30.14 in 10.0 mi NNE 4.6 mph - N/A   Clear
3:55 AM 60.8 °F 60.8 °F 100% 30.15 in 10.0 mi NE 3.5 mph - N/A   Clear
4:15 AM 60.8 °F 60.8 °F 100% 30.14 in 10.0 mi NNE 3.5 mph - N/A   Clear
4:35 AM 60.8 °F 60.8 °F 100% 30.14 in 10.0 mi NE 4.6 mph - N/A   Clear
4:55 AM 60.8 °F 60.8 °F 100% 30.14 in 10.0 mi NNE 4.6 mph - N/A   Clear
5:15 AM 60.8 °F 59.0 °F 94% 30.14 in 10.0 mi NNE 4.6 mph - N/A   Clear
5:35 AM 60.8 °F 59.0 °F 94% 30.15 in 10.0 mi NNE 4.6 mph - N/A   Clear
5:55 AM 59.0 °F 59.0 °F 100% 30.15 in 10.0 mi NNE 4.6 mph - N/A   Clear
6:15 AM 59.0 °F 59.0 °F 100% 30.16 in 10.0 mi Calm Calm - N/A   Clear
6:35 AM 59.0 °F 59.0 °F 100% 30.16 in 10.0 mi NNE 4.6 mph - N/A   Clear
6:55 AM 59.0 °F 59.0 °F 100% 30.16 in 10.0 mi NE 3.5 mph - N/A   Clear
7:15 AM 60.8 °F 59.0 °F 94% 30.16 in 10.0 mi NNE 4.6 mph - N/A   Clear
7:35 AM 62.6 °F 60.8 °F 94% 30.17 in 10.0 mi NE 4.6 mph - N/A   Clear
7:55 AM 62.6 °F 60.8 °F 94% 30.17 in 10.0 mi ENE 4.6 mph - N/A   Clear
8:35 AM 64.4 °F 59.0 °F 83% 30.17 in 10.0 mi ENE 8.1 mph - N/A   Clear
8:55 AM 66.2 °F 59.0 °F 78% 30.18 in 10.0 mi East 6.9 mph - N/A   Clear
9:15 AM 68.0 °F 60.8 °F 78% 30.17 in 10.0 mi NE 6.9 mph - N/A   Clear
9:35 AM 69.8 °F 60.8 °F 73% 30.17 in 10.0 mi NE 9.2 mph - N/A   Clear
9:55 AM 69.8 °F 59.0 °F 68% 30.17 in 10.0 mi ENE 9.2 mph - N/A   Clear
10:15 AM 71.6 °F 59.0 °F 64% 30.16 in 10.0 mi ENE 10.4 mph 16.1 mph N/A   Clear
10:35 AM 71.6 °F 59.0 °F 64% 30.16 in 10.0 mi ENE 11.5 mph - N/A   Clear
10:55 AM 71.6 °F 59.0 °F 64% 30.16 in 10.0 mi ENE 13.8 mph - N/A   Clear
11:15 AM 73.4 °F 59.0 °F 61% 30.16 in 10.0 mi ENE 11.5 mph 18.4 mph N/A   Clear
11:35 AM 73.4 °F 59.0 °F 61% 30.16 in 10.0 mi ENE 12.7 mph 17.3 mph N/A   Clear
11:55 AM 73.4 °F 59.0 °F 61% 30.15 in 10.0 mi NE 10.4 mph 16.1 mph N/A   Clear
12:15 PM 73.4 °F 59.0 °F 61% 30.14 in 10.0 mi East 11.5 mph - N/A   Clear
12:35 PM 73.4 °F 59.0 °F 61% 30.13 in 10.0 mi East 9.2 mph 17.3 mph N/A   Clear
1:15 PM 75.2 °F 59.0 °F 57% 30.12 in 10.0 mi ENE 6.9 mph 16.1 mph N/A   Clear
1:35 PM 75.2 °F 59.0 °F 57% 30.12 in 10.0 mi ENE 9.2 mph - N/A   Clear
1:55 PM 75.2 °F 59.0 °F 57% 30.12 in 10.0 mi East 9.2 mph - N/A   Clear
2:15 PM 77.0 °F 60.8 °F 57% 30.11 in 10.0 mi ENE 9.2 mph - N/A   Clear
2:35 PM 75.2 °F 60.8 °F 61% 30.11 in 10.0 mi NE 9.2 mph - N/A   Clear
2:55 PM 75.2 °F 60.8 °F 61% 30.10 in 10.0 mi ENE 9.2 mph - N/A   Clear
3:15 PM 75.2 °F 60.8 °F 61% 30.10 in 10.0 mi ENE 5.8 mph - N/A   Clear
3:35 PM 75.2 °F 60.8 °F 61% 30.09 in 10.0 mi NE 8.1 mph - N/A   Clear
3:55 PM 77.0 °F 60.8 °F 57% 30.08 in 10.0 mi ENE 5.8 mph - N/A   Clear
4:15 PM 77.0 °F 60.8 °F 57% 30.08 in 10.0 mi NE 8.1 mph - N/A   Clear
4:35 PM 77.0 °F 60.8 °F 57% 30.07 in 10.0 mi NE 6.9 mph - N/A   Clear
4:55 PM 77.0 °F 60.8 °F 57% 30.07 in 10.0 mi ENE 6.9 mph - N/A   Clear
5:15 PM 77.0 °F 60.8 °F 57% 30.07 in 10.0 mi NE 10.4 mph - N/A   Clear
5:55 PM 73.4 °F 59.0 °F 61% 30.07 in 10.0 mi NE 5.8 mph - N/A   Clear
6:15 PM 73.4 °F 60.8 °F 65% 30.07 in 10.0 mi NE 4.6 mph - N/A   Clear
6:35 PM 71.6 °F 60.8 °F 69% 30.07 in 10.0 mi ENE 4.6 mph - N/A   Clear
6:55 PM 69.8 °F 62.6 °F 78% 30.07 in 10.0 mi ENE 4.6 mph - N/A   Clear
7:15 PM 69.8 °F 62.6 °F 78% 30.07 in 10.0 mi NE 4.6 mph - N/A   Clear
7:35 PM 68.0 °F 64.4 °F 88% 30.07 in 10.0 mi NE 4.6 mph - N/A   Clear
7:55 PM 68.0 °F 62.6 °F 83% 30.08 in 10.0 mi NNE 4.6 mph - N/A   Clear
8:15 PM 66.2 °F 64.4 °F 94% 30.09 in 10.0 mi NNE 4.6 mph - N/A   Clear
8:35 PM 64.4 °F 62.6 °F 94% 30.09 in 10.0 mi NNE 4.6 mph - N/A   Clear
8:55 PM 64.4 °F 62.6 °F 94% 30.10 in 10.0 mi NNE 4.6 mph - N/A   Clear
9:35 PM 64.4 °F 62.6 °F 94% 30.10 in 10.0 mi NNE 5.8 mph - N/A   Clear
10:15 PM 62.6 °F 60.8 °F 94% 30.09 in 10.0 mi NNE 3.5 mph - N/A   Clear
10:35 PM 62.6 °F 60.8 °F 94% 30.09 in 10.0 mi NE 4.6 mph - N/A   Clear
11:15 PM 62.6 °F 60.8 °F 94% 30.09 in 10.0 mi NNE 4.6 mph - N/A   Clear
11:35 PM 62.6 °F 60.8 °F 94% 30.08 in 10.0 mi NNE 4.6 mph - N/A   Clear
11:55 PM 62.6 °F 59.0 °F 88% 30.08 in 10.0 mi NE 4.6 mph - N/A   Clear